Regional Weather Roundup
Issued by NWS

Home | Current Version | Previous Version | Graphics & Text | Print | Product List | Glossary Off
Versions: 1 2 3 4 5 6 7 8 9 10 11 12 13 14 15 16 17 18 19 20 21 22 23 24 25 26 27 28 29 30 31 32 33 34 35 36 37 38 39 40 41 42 43 44 45 46 47 48 49 50

159
ASUS43 KBIS 251310
RWRND

NORTH DAKOTA REGIONAL WEATHER ROUNDUP
NATIONAL WEATHER SERVICE BISMARCK ND
800 AM CDT SAT MAR 25 2017

NOTE: "FAIR" INDICATES FEW OR NO CLOUDS BELOW 12,000 FEET WITH NO
SIGNIFICANT WEATHER AND/OR OBSTRUCTIONS TO VISIBILITY.


NDZ001>003-009>011-017-251400-
NORTHWEST NORTH DAKOTA

CITY           SKY/WX    TMP DP  RH WIND       PRES   REMARKS
WILLISTON      FAIR      42  33  70 S8        29.84S
MINOT          FAIR      31  29  92 SE10      29.95F
MINOT AFB      CLOUDY    30  29  95 SE14      29.95R WCI  20
$$

NDZ018>021-031>035-040>046-251400-
SOUTHWEST NORTH DAKOTA

CITY           SKY/WX    TMP DP  RH WIND       PRES   REMARKS
BISMARCK       CLOUDY    31  30  96 SE10      30.04S FOG
DICKINSON      FAIR      32  29  88 S15       29.88R
GARRISON         N/A     30  29  96 SE10      29.96S
HETTINGER ARPT CLOUDY    33  29  85 SE9       29.94R
$$

NDZ004>008-012>016-024-026-027-054-251400-
NORTHEAST NORTH DAKOTA

CITY           SKY/WX    TMP DP  RH WIND       PRES   REMARKS
GRAND FORKS    MOCLDY    32  30  92 SE10      30.16S
GRND FRKS AFB  CLOUDY    29  29  99 S10       30.15S WCI  20
DEVILS LAKE    FAIR      27  26  96 SE12      30.08S WCI  17
$$

NDZ022-023-025-028>030-036>039-047>053-251400-
SOUTHEAST NORTH DAKOTA

CITY           SKY/WX    TMP DP  RH WIND       PRES   REMARKS
FARGO          CLEAR     30  28  92 E3        30.17F
JAMESTOWN      CLOUDY    29  28  96 S10       30.10S FOG     WCI  20
$$





USA.gov is the U.S. government's official web portal to all federal, state and local government web resources and services.